Zurück zum Katalog

COSMOS 1288

AktivNavigationLEO
NORAD 12637·PAYLOAD·🇷🇺 Russia

Gestartet Aug 6, 1981 von Plesetsk Cosmodrome

Loading…

Nächste Überflüge (nächste 24 Stunden)

TLE

AktuellSource: Space-Track

Epoche: Sep 14, 2026, 13:37 UTC

1 12637U 81074B   26257.56798962  .00000001  00000-0  11104-3 0  9994
2 12637  74.0375 350.4395 0017208 141.2604 232.8966 12.46713940 52798

Verfolge COSMOS 1288 in Echtzeit mit AllMySat

Download on the App Store